Flag for Brazil Weather past 2 weeks in Florianópolis, Santa Catarina, Brazil

Now
77 °F

Scattered clouds.


Feels Like: 79 °F
Forecast: 70 / 76 °F
Wind: 16 mph from South

Location: Florianopolis Aeroporto

Current Time: Apr 21, 2015 at 5:23:49 PM

Latest Report: Apr 21, 2015 at 4:00 PM


Visibility: N/A

Pressure: 29.95 "Hg

Humidity: 61%

Dew point: 63 °F

Location of FlorianópolisLocation

Historic Weather in Florianópolis — Graph

°F

Florianópolis temperature yesterday

Maximum temperature yesterday: 79 °F (at 12:00 PM)
Minimum temperature yesterday: 72 °F (at 6:00 PM)
Average temperature yesterday: 75 °F

Past Weeks' High & Low Weather Summary

 TemperatureHumidityPressure
High84 °F (Apr 10, 2:00 PM)94% (Apr 9, 6:00 AM)30.15 "Hg (Apr 9, 6:00 AM)
Low63 °F (Apr 9, 6:00 AM)48% (Apr 10, 2:00 PM)29.77 "Hg (Apr 20, 2:00 PM)
Average74 °F78%30.01 "Hg
* Reported Apr 6 4:00 PM — Apr 21 4:00 PM, Florianópolis, Weather by CustomWeather, © 2015

Note: Actual official high and low records may vary slightly from our data, if they occured in-between our weather recording intervals... More about our weather records

Advertising

Florianópolis weather history for previous 24 hours

 ConditionsComfort  
Time TempWeatherWind HumidityBarometerVisibility
4:00 PM
Tue, Apr 21
77 °FScattered clouds.16 mph61%29.95 "HgN/A
3:00 PM79 °FScattered clouds.13 mph58%29.95 "HgN/A
2:00 PM81 °FScattered clouds.15 mph58%29.95 "HgN/A
1:00 PM81 °FPartly sunny.14 mph58%29.95 "HgN/A
12:00 PM81 °FPassing clouds.14 mph62%29.95 "HgN/A
11:00 AM81 °FPassing clouds.15 mph62%29.95 "HgN/A
10:00 AM79 °FPassing clouds.6 mph79%29.95 "HgN/A
9:00 AM77 °FPassing clouds.5 mph79%29.95 "HgN/A
8:00 AM75 °FPassing clouds.8 mph74%29.92 "HgN/A
7:00 AM73 °FPassing clouds.9 mph78%29.89 "HgN/A
6:00 AM70 °FPassing clouds.No wind94%29.86 "HgN/A
5:00 AM72 °FPassing clouds.No wind88%29.83 "HgN/A
4:00 AM72 °FPartly cloudy.5 mph88%29.83 "HgN/A
3:00 AM72 °FPassing clouds.No wind88%29.83 "HgN/A
2:00 AM72 °FPassing clouds.8 mph88%29.83 "HgN/A
1:00 AM73 °FPartly cloudy.7 mph83%29.83 "HgN/A
12:00 AM73 °FPartly cloudy.6 mph89%29.83 "HgN/A
11:00 PM
Mon, Apr 20
73 °FPassing clouds.8 mph89%29.83 "HgN/A
10:00 PM73 °FPartly cloudy.7 mph94%29.83 "HgN/A
9:00 PM73 °FPassing clouds.6 mph89%29.83 "HgN/A
8:00 PM72 °FLight rain. Partly cloudy.No wind94%29.80 "Hg5 mi
7:00 PM72 °FLight rain. Passing clouds.2 mph94%29.80 "Hg2 mi
6:00 PM72 °FLight rain. Passing clouds.6 mph94%29.80 "Hg2 mi
5:00 PM75 °FRain. Fog.6 mph83%29.80 "Hg1 mi
Weather by CustomWeather, © 2015

See weather overviewHow to use our weather pages